Location: Oakhurst
(33.6448°N, 111.9543°W)
Time: 14:55:57
(UTC+00:00)

SPROUT - Pass Details

Date: 30 July 2021
Orbit: 597 x 607 km, 97.9° (Epoch: 21 September)

Event Time Altitude Azimuth Distance (km) Brightness Sun altitude
Exits shadow 07:22:47 11° 18° (NNE) 1,853 ? -37.9°
Drops below altitude 10° 07:23:02 10° 16° (NNE) 1,938 ? -37.9°
Sets 07:25:29 0° 3° (N) 2,844 ? -37.9°
